Regional Weather Roundup
Issued by NWS Midland/Odessa, TX

Skip options and go directly to product.
Home | Oldest Version | Previous Version | Current Version | All | Text Only | Save Text | Print | Product List | Glossary On

Skip product version selection by date and time.   
757
ASUS44 KMAF 261710
RWRMAF
MIDLAND AREA WEATHER ROUNDUP
NATIONAL WEATHER SERVICE MIDLAND TX
1200 PM CDT MON SEP 26 2016

...IN SOUTHWEST TEXAS AND SOUTHEAST NEW MEXICO...

CITY           SKY/WX    TMP DP  RH WIND       PRES   REMARKS
ALPINE         CLOUDY    49  49  99 NE15      30.44S
ANDREWS        CLOUDY    63  46  54 NE13      30.36R
ARTESIA        CLOUDY    63  45  51 CALM      30.42S
BIG SPRING     CLOUDY    66  48  53 NE20G29   30.34R
CARLSBAD       CLOUDY    62  48  60 NW6       30.39S
DRYDEN           N/A     61  59  93 N18G25    30.22S
FORT STOCKTON  CLOUDY    55  53  93 W7        30.36S
GUAD PASS      CLOUDY    51  43  74 NE52G59   30.36S
HOBBS          CLOUDY    63  45  51 NE13      30.40R
MARFA          CLOUDY   N/A N/A N/A NE24G35   30.36S
MIDLAND AIRPK  CLOUDY    66  46  47 E17G23    30.33F
MIDLAND INTL   CLOUDY    66  45  46 NE21      30.32S
ODESSA         CLOUDY    65  45  48 E22       30.34S
PECOS          RAIN      58  54  88 S10         N/A
PRESIDIO       LGT RAIN  64  55  70 N15G23    30.24R
SEMINOLE       CLOUDY    65  46  49 E14       30.38S
SNYDER           N/A     66  46  48 NE10G17   30.32F
WINK           CLOUDY    63  49  60 NE6       30.35S
$$
...OTHER STATIONS IN TEXAS...

CITY           SKY/WX    TMP DP  RH WIND       PRES   REMARKS
ABILENE        CLOUDY    67  55  65 N12G20    30.28F
AMARILLO       SUNNY     68  34  28 E7        30.42S
AUSTIN         CLOUDY    71  70  96 N17       30.12S
BROWNSVILLE    CLOUDY    84  73  69 E12       29.99S
CORPUS CHRISTI CLOUDY    83  76  79 N12       30.03S
DALLAS FTW     CLOUDY    67  56  67 N17G25    30.18S
DEL RIO        CLOUDY    75  66  73 MISG      30.12S
EL PASO        CLOUDY    58  47  66 SE10      30.35S
HOUSTON INT    CLOUDY    83  73  72 NE6       30.06S
LUBBOCK        MOSUNNY   69  37  30 NE16G25   30.37S
SAN ANGELO     CLOUDY    64  56  75 NE9       30.26F
SAN ANTONIO    CLOUDY    75  71  87 NE9       30.11F
WACO           CLOUDY    68  64  87 N14       30.16S
WICHITA FALLS  NOT AVBL
$$
...OTHER LOCATIONS IN NEW MEXICO...

CITY           SKY/WX    TMP DP  RH WIND       PRES   REMARKS
ALAMAGORDO     CLOUDY    68  32  26 NW10      30.34S
ALBUQUERQUE    MOSUNNY   63  34  33 VRB5      30.46F
CANNON AFB     MOSUNNY   65  38  37 NE13      30.42F
CLOVIS         SUNNY     66  39  37 E10       30.43F
HOLLOMAN AFB   CLOUDY    68  34  27 W13       30.33S
ROSWELL        CLOUDY    66  41  40 VRB3      30.41F
RUIDOSO        CLOUDY    55  34  44 SE18      30.52F
SANTA FE       SUNNY     59  33  37 CALM      30.50F
TRUTH OR CONSE CLOUDY    63  37  38 N16       30.38F
TUCUMCARI      SUNNY     67  37  33 VRB5      30.42F
$$

USA.gov is the U.S. government's official web portal to all federal, state and local government web resources and services.